GW4366 Weather Reports


Display with metric or nautical units.
time (UTC)temp
F
wind
direction
speed
MPH
gust
MPH
rain 1hr
in
rain 24hr
in
rain mn
in
humidity
%
barometer
mb
20260906110004 75 80 0.0 2.0 0.00 0.00 0.00 85 988.7
20260906090004 76 118 2.0 4.0 0.00 0.00 0.00 89 987.6
20260906083005 75 137 2.0 8.0 0.00 0.00 0.00 89 987.5
20260906080004 77 57 0.0 1.0 0.00 0.00 0.00 89 986.9
20260906073004 78 57 0.0 1.0 0.00 0.00 0.00 89 987.1
20260906070008 79 57 0.0 0.0 0.00 0.00 0.00 89 986.8
20260906060020 79 57 0.0 2.0 0.00 0.00 0.00 83 987.0
20260906053016 79 57 0.0 6.0 0.00 0.00 0.00 82 986.9
20260906050006 80 40 0.0 0.0 0.00 0.00 0.00 79 987.3
20260906043005 81 343 0.0 0.0 0.00 0.00 0.00 78 987.3
20260906040005 81 4 0.0 1.0 0.00 0.00 0.00 79 987.2
20260906030009 83 320 2.0 4.0 0.00 0.00 0.00 73 987.3
20260906023003 83 359 0.0 0.0 0.00 0.00 0.00 74 987.0
20260906020007 85 359 0.0 0.0 0.00 0.00 0.00 71 986.7
20260906013016 86 359 0.0 0.0 0.00 0.00 0.00 69 986.5
20260906010006 87 359 0.0 0.0 0.00 0.00 0.00 66 986.1
20260906003008 89 359 0.0 0.0 0.00 0.00 0.00 64 986.1
20260906000004 93 359 0.0 0.0 0.00 0.00 0.00 60 986.6
20260905233004 95 345 0.0 4.0 0.00 0.00 0.00 59 986.6
20260905223003 97 81 0.0 4.0 0.00 0.00 0.00 55 986.2
20260905220016 97 318 1.0 3.0 0.00 0.00 0.00 52 986.2
20260905213006 97 287 0.0 5.0 0.00 0.00 0.00 50 986.2
20260905210008 96 179 1.0 5.0 0.00 0.00 0.00 55 986.4
20260905203005 97 37 0.0 3.0 0.00 0.00 0.00 54 986.8
20260905200013 96 66 0.0 2.0 0.00 0.00 0.00 55 987.2
20260905193011 99 91 0.0 5.0 0.00 0.03 0.00 51 987.7
20260905190007 99 95 0.0 4.0 0.00 0.03 0.00 54 987.9
20260905183004 96 153 0.0 4.0 0.00 0.12 0.00 57 988.3
20260905170011 94 220 2.0 9.0 0.00 0.12 0.00 63 989.0
20260905163002 93 216 1.0 5.0 0.00 0.12 0.00 62 989.2
20260905160004 92 88 0.0 3.0 0.00 0.12 0.00 66 989.5
20260905153004 90 63 0.0 3.0 0.00 0.12 0.00 68 989.7
20260905150006 88 118 0.0 1.0 0.00 0.12 0.00 73 989.8
20260905143001 84 219 0.0 0.0 0.00 0.12 0.00 77 990.0
20260905140010 81 89 0.0 0.0 0.00 0.12 0.00 84 989.9
20260905113001 73 43 0.0 0.0 0.00 0.12 0.00 90 989.1